Hourly Data Report for June 22, 2017

All times are specified in Local Standard Time (LST). Add 1 hour to adjust for Daylight Saving Time where and when it is observed.

WEKWEETI A
NORTHWEST TERRITORIES

64°11'27.000" N
114°04'36.000" W
368.20 m
2203980
YWE

Related Data

No related data is available for this station

Download Data

Hourly Data (June 2017)
Hourly Data Report for June 22, 2017
Temp Definition
°C
Dew Point Temp Definition
°C
Rel Hum Definition
%
Wind Dir Definition
10's deg

Wind Spd Definition
km/h
Visibility Definition
km
Stn Press Definition
kPa
Hmdx Definition


Wind Chill Definition


Weather Definition


TIME
00:00 Legend Double Dagger 6.0 0.1 66 1 9 16.1 97.33     LegendNANA
01:00 Legend Double Dagger 5.7 0.0 67 1 9 16.1 97.37     LegendNANA
02:00 Legend Double Dagger 5.6 -0.1 67 LegendMM 4 16.1 97.40     LegendNANA
03:00 Legend Double Dagger 4.6 0.3 74 36 11 16.1 97.45     LegendNANA
04:00 Legend Double Dagger 5.3 1.1 74   0 16.1 97.48     LegendNANA
05:00 Legend Double Dagger 6.4 1.8 72   0 16.1 97.50     LegendNANA
06:00 Legend Double Dagger 7.3 2.1 69 23 4 16.1 97.52     LegendNANA
07:00 Legend Double Dagger 9.0 2.2 62 24 8 16.1 97.52     LegendNANA
08:00 Legend Double Dagger 11.0 -1.2 43 35 9 16.1 97.52     LegendNANA
09:00 Legend Double Dagger 12.0 -1.5 39 32 18 16.1 97.52     LegendNANA
10:00 Legend Double Dagger 12.7 -1.5 37 30 17 16.1 97.54     LegendNANA
11:00 Legend Double Dagger 13.5 -2.0 34 31 22 16.1 97.52     LegendNANA
12:00 Legend Double Dagger 14.1 -1.2 35 33 15 16.1 97.54     LegendNANA
13:00 Legend Double Dagger 15.0 -1.2 33 36 15 16.1 97.53     LegendNANA
14:00 Legend Double Dagger 15.6 -1.8 30 34 21 16.1 97.53     LegendNANA
15:00 Legend Double Dagger 16.3 -1.0 31 31 15 16.1 97.54     LegendNANA
16:00 Legend Double Dagger 16.4 -1.6 29 4 13 16.1 97.55     LegendNANA
17:00 Legend Double Dagger 16.1 -1.0 31 2 11 16.1 97.54     LegendNANA
18:00 Legend Double Dagger 15.4 -1.1 32 36 11 16.1 97.54     LegendNANA
19:00 Legend Double Dagger 14.8 -0.6 35 34 5 16.1 97.56     LegendNANA
20:00 Legend Double Dagger 14.8 -0.4 35 LegendMM 4 16.1 97.54     LegendNANA
21:00 Legend Double Dagger 13.6 3.4 50   0 16.1 97.54     LegendNANA
22:00 Legend Double Dagger 12.5 3.6 54 LegendMM 4 16.1 97.59     LegendNANA
23:00 Legend Double Dagger 11.9 3.3 56 11 13 16.1 97.62     LegendNANA

Notes on Data Quality.

Legend

  • E = Estimated
  • M = Missing
  • NA = Not Available
  • ‡ = Partner data that is not subject to review by the National Climate Archives
Date modified: